Flag for Spain Weather past 2 weeks in Arrecife, Canary Islands, Spain

Now
66 °F

Passing clouds.


Feels Like: 66 °F
Forecast: 61 / 68 °F
Wind: 13 mph from Northeast

Location: Lanzarote / Aeropuerto

Current Time: Jan 26, 2015 at 11:31:38 AM

Latest Report: Jan 26, 2015 at 11:00 AM


Visibility: N/A

Pressure: 30.33 "Hg

Humidity: 73%

Dew point: 57 °F

Location of ArrecifeLocation

Historic Weather in Arrecife — Graph

°F

Arrecife temperature yesterday

Maximum temperature yesterday: 66 °F (at 11:00 AM)
Minimum temperature yesterday: 59 °F (at 10:30 PM)
Average temperature yesterday: 63 °F

Past Weeks' High & Low Weather Summary

 TemperatureHumidityPressure
High73 °F (Jan 15, 3:30 PM)94% (Jan 16, 1:00 PM)30.39 "Hg (Jan 16, 1:00 PM)
Low55 °F (Jan 16, 7:00 AM)43% (Jan 11, 2:30 PM)30.09 "Hg (Jan 20, 6:30 AM)
Average64 °F69%30.22 "Hg
* Reported Jan 11 10:00 AM — Jan 26 10:30 AM, Arrecife, Weather by CustomWeather, © 2014

Note: Actual official high and low records may vary slightly from our data, if they occured in-between our weather recording intervals... More about our weather records

Advertising

Arrecife weather history for previous 24 hours

 ConditionsComfort  
Time TempWeatherWind HumidityBarometerVisibility
10:30 AM
Jan 26
64 °FPassing clouds.15 mph78%30.33 "HgN/A
10:00 AM64 °FPassing clouds.12 mph83%30.33 "HgN/A
9:30 AM63 °FPassing clouds.3 mph77%30.30 "HgN/A
9:00 AM61 °FPassing clouds.7 mph77%30.30 "HgN/A
8:30 AM57 °FPassing clouds.6 mph82%30.30 "HgN/A
8:00 AM61 °FPassing clouds.9 mph88%30.27 "HgN/A
7:30 AM59 °FPassing clouds.9 mph88%30.27 "HgN/A
7:00 AM57 °FPassing clouds.9 mph94%30.24 "HgN/A
6:30 AM57 °FPassing clouds.8 mph94%30.24 "HgN/A
6:00 AM57 °FPassing clouds.8 mph82%30.24 "HgN/A
1:00 AM59 °FPassing clouds.8 mph82%30.24 "HgN/A
12:30 AM59 °FPassing clouds.9 mph82%30.24 "HgN/A
12:00 AM59 °FPassing clouds.10 mph82%30.24 "HgN/A
11:30 PM
Jan 25
59 °FPassing clouds.12 mph82%30.21 "HgN/A
11:00 PM59 °FPassing clouds.12 mph82%30.21 "HgN/A
10:30 PM59 °FPassing clouds.9 mph77%30.21 "HgN/A
10:00 PM61 °FPassing clouds.12 mph72%30.21 "HgN/A
9:30 PM61 °FPassing clouds.9 mph77%30.21 "HgN/A
8:30 PM61 °FPassing clouds.10 mph72%30.21 "HgN/A
8:00 PM61 °FPassing clouds.12 mph77%30.21 "HgN/A
7:30 PM61 °FPassing clouds.12 mph72%30.18 "HgN/A
7:00 PM63 °FPassing clouds.15 mph68%30.18 "HgN/A
6:30 PM63 °FPassing clouds.16 mph77%30.18 "HgN/A
6:00 PM63 °FPassing clouds.20 mph73%30.18 "HgN/A
5:30 PM64 °FPassing clouds.21 mph73%30.15 "HgN/A
5:00 PM64 °FScattered clouds.22 mph73%30.15 "HgN/A
4:30 PM64 °FScattered clouds.21 mph73%30.15 "HgN/A
4:00 PM66 °FPassing clouds.21 mph64%30.15 "HgN/A
3:30 PM66 °FScattered clouds.20 mph68%30.15 "HgN/A
3:00 PM66 °FPartly sunny.20 mph68%30.15 "HgN/A
2:30 PM66 °FPassing clouds.20 mph68%30.15 "HgN/A
2:00 PM66 °FPassing clouds.20 mph68%30.15 "HgN/A
1:30 PM66 °FScattered clouds.18 mph68%30.18 "HgN/A
1:00 PM66 °FScattered clouds.21 mph68%30.18 "HgN/A
12:30 PM66 °FScattered clouds.20 mph68%30.18 "HgN/A
12:00 PM66 °FScattered clouds.18 mph68%30.21 "HgN/A
11:30 AM66 °FScattered clouds.20 mph64%30.21 "HgN/A
11:00 AM66 °FScattered clouds.18 mph68%30.21 "HgN/A
Weather by CustomWeather, © 2014

See weather overviewHow to use our weather pages